Location: Seasalter
(51.3333°N, 1.0167°E)
Time: 11:42:50
(UTC+00:00)

S3M - Pass Details

Date: 26 September 2023
Orbit: 948 x 1005 km, 83.0° (Epoch: 10 December)

Event Time Altitude Azimuth Distance (km) Brightness Sun altitude
Rises 03:29:15 0° 348° (NNW) 3,747 7.3 -21.7°
Reaches altitude 10° 03:31:48 10° 347° (NNW) 2,792 6.5 -21.3°
Maximum altitude 03:38:12 73° 265° (W) 1,049 3.9 -20.4°
Drops below altitude 10° 03:44:30 10° 182° (S) 2,752 6.1 -19.5°
Sets 03:47:00 0° 180° (S) 3,690 6.8 -19.2°
